Hill City, KS

3:30 AM CST on November 18, 2017 (GMT -0600)
Hill City Municipal

Weather History for KHLC - January, 2013

Change the Weather History Date:

Wednesday, January 9, 2013

  Actual Average Record
Temperature  
Mean Temperature 37 °F 29 °F  
Max Temperature 52 °F 42 °F 74 °F (2003)
Min Temperature 22 °F 17 °F -13 °F (1988)
Degree Days  
Heating Degree Days 28    
Moisture  
Dew Point 28 °F    
Average Humidity 75    
Maximum Humidity 92    
Minimum Humidity 47    
Precipitation  
Precipitation 0.00 in 0.00 in 0.10 in (2011)
Month to date precipitation T 0.07  
Year to date precipitation T 0.07  
Sea Level Pressure  
Sea Level Pressure 30.35 in    
Wind  
Wind Speed 6 mph (SW)    
Max Wind Speed 9 mph    
Max Gust Speed -    
Visibility 10 miles    
Events      
T = Trace of Precipitation, MM = Missing Value Source: NWS Daily Summary

Daily Weather History Graph

Daily Weather History Graph

Search for Another Location

Airport or City:

Trip Planner

Search our weather history database for the weather conditions in past years. The results will help you decide how hot, cold, wet, or windy it might be!

Date:

Astronomy

Jan. 09, 2013 Rise Set
Actual Time 7:59 AM CST 5:34 PM CST
Civil Twilight 7:29 AM CST 6:04 PM CST
Nautical Twilight 6:56 AM CST 6:37 PM CST
Astronomical Twilight 6:23 AM CST 7:09 PM CST
Moon 5:40 AM CST (1/9) 3:37 PM CST (1/9)
Length of Visible Light 10h 34m
Length of Day
9h 35m
Waning Crescent, 6% of the Moon is Illuminated
Jan 9
Waning Crescent
Jan 11
New
Jan 18
First Quarter
Jan 26
Full
Feb 3
Last Quarter

Hourly Weather History & Observations

Time (CST) Temp. Windchill Dew Point Humidity Pressure Visibility Wind Dir Wind Speed Gust Speed Precip Events Conditions
12:53 AM 28.9 °F 20.4 °F 25.0 °F 85% 30.28 in 10.0 mi West 9.2 mph - N/A   Clear
1:53 AM 30.0 °F 21.7 °F 25.0 °F 82% 30.28 in 10.0 mi WNW 9.2 mph - N/A   Clear
2:53 AM 33.1 °F 26.9 °F 26.1 °F 75% 30.26 in 10.0 mi NW 6.9 mph - N/A   Clear
3:53 AM 27.0 °F 21.6 °F 24.1 °F 89% 30.33 in 10.0 mi SSW 4.6 mph - N/A   Clear
4:53 AM 24.1 °F 19.7 °F 21.0 °F 88% 30.34 in 10.0 mi West 3.5 mph - N/A   Clear
5:53 AM 23.0 °F 14.7 °F 21.0 °F 92% 30.39 in 10.0 mi SSW 6.9 mph - N/A   Clear
6:53 AM 24.1 °F 19.7 °F 21.0 °F 88% 30.40 in 10.0 mi West 3.5 mph - N/A   Clear
7:53 AM 24.1 °F 17.0 °F 21.0 °F 88% 30.44 in 10.0 mi SW 5.8 mph - N/A   Clear
8:53 AM 26.1 °F 19.4 °F 21.9 °F 84% 30.46 in 10.0 mi WSW 5.8 mph - N/A   Clear
11:53 AM 44.1 °F 40.8 °F 30.9 °F 60% 30.42 in 10.0 mi West 5.8 mph - N/A   Clear
12:53 PM 50.0 °F - 30.9 °F 48% 30.38 in 10.0 mi WSW 6.9 mph - N/A   Clear
1:53 PM 50.0 °F - 30.9 °F 48% 30.35 in 10.0 mi SW 5.8 mph - N/A   Clear
2:53 PM 52.0 °F - 32.0 °F 47% 30.33 in 10.0 mi Calm Calm - N/A   Clear
3:53 PM 51.1 °F - 33.1 °F 50% 30.34 in 10.0 mi SE 4.6 mph - N/A   Clear
4:53 PM 45.0 °F 41.8 °F 34.0 °F 65% 30.34 in 10.0 mi ESE 5.8 mph - N/A   Clear
5:53 PM 39.0 °F 34.8 °F 32.0 °F 76% 30.36 in 10.0 mi South 5.8 mph - N/A   Clear
6:53 PM 37.9 °F 35.5 °F 32.0 °F 79% 30.38 in 10.0 mi South 3.5 mph - N/A   Clear
7:53 PM 37.0 °F 32.4 °F 30.0 °F 76% 30.36 in 10.0 mi South 5.8 mph - N/A   Clear
8:53 PM 37.0 °F 31.0 °F 30.9 °F 79% 30.35 in 10.0 mi South 8.1 mph - N/A   Clear
9:53 PM 36.0 °F 30.3 °F 30.0 °F 79% 30.34 in 10.0 mi South 6.9 mph - N/A   Clear
10:53 PM 33.1 °F 28.7 °F 28.9 °F 85% 30.32 in 10.0 mi South 4.6 mph - N/A   Clear
11:53 PM 32.0 °F 28.7 °F 28.9 °F 88% 30.31 in 10.0 mi SW 3.5 mph - N/A   Clear